EW2549 Weather Reports


time (UTC)temp
C
wind
direction
speed
KPH
gust
KPH
rain 1hr
cm
rain 24hr
cm
rain mn
cm
humidity
%
barometer
mb
20260905130034 14 261 0.0 0.0 0.00 0.00 0.00 58 1004.6
20260905124540 14 261 0.0 0.0 0.00 0.00 0.00 57 1004.3
20260905123029 15 261 0.0 0.0 0.00 0.00 0.00 57 1004.1
20260905121526 15 261 0.0 0.0 0.00 0.00 0.00 57 1004.1
20260905120027 15 261 0.0 0.0 0.00 0.00 0.00 56 1003.9
20260905114521 15 261 0.0 8.0 0.00 0.00 0.00 54 1003.9
20260905113019 16 276 0.0 0.0 0.00 0.00 0.00 53 1003.9
20260905111516 16 276 0.0 0.0 0.00 0.00 0.00 52 1003.9
20260905104520 17 277 0.0 0.0 0.00 0.00 0.00 51 1003.7
20260905103011 17 277 0.0 0.0 0.00 0.00 0.00 50 1003.6
20260905101509 17 240 0.0 0.0 0.00 0.00 0.00 50 1003.6
20260905100007 17 240 0.0 0.0 0.00 0.00 0.00 49 1003.7
20260905094506 17 240 0.0 0.0 0.00 0.00 0.00 49 1003.5
20260905093006 17 240 0.0 0.0 0.00 0.00 0.00 50 1003.4
20260905091506 17 240 0.0 8.0 0.00 0.00 0.00 50 1003.2
20260905090004 17 311 0.0 0.0 0.00 0.00 0.00 52 1003.3
20260905084506 16 311 0.0 0.0 0.00 0.00 0.00 52 1003.3
20260905083003 16 335 0.0 0.0 0.00 0.00 0.00 51 1003.4
20260905081500 17 335 0.0 0.0 0.00 0.00 0.00 50 1003.4
20260905080101 17 335 0.0 0.0 0.00 0.00 0.00 52 1003.4
20260905074555 17 335 0.0 0.0 0.00 0.00 0.00 51 1003.4
20260905073052 17 335 0.0 0.0 0.00 0.00 0.00 48 1003.5
20260905071558 18 335 0.0 0.0 0.00 0.00 0.00 49 1003.5
20260905070048 18 334 0.0 0.0 0.00 0.00 0.00 47 1003.4
20260905064552 18 334 0.0 0.0 0.00 0.00 0.00 44 1003.3
20260905063041 19 334 0.0 0.0 0.00 0.00 0.00 44 1003.0
20260905061555 20 335 0.0 0.0 0.00 0.00 0.00 42 1003.3
20260905060034 20 335 0.0 0.0 0.00 0.00 0.00 41 1003.2
20260905054534 21 335 0.0 0.0 0.00 0.00 0.00 39 1003.0
20260905053033 21 335 0.0 0.0 0.00 0.00 0.00 37 1003.1
20260905051540 22 335 0.0 0.0 0.00 0.00 0.00 37 1002.9
20260905050033 22 335 0.0 0.0 0.00 0.00 0.00 36 1002.9
20260905044532 22 335 0.0 0.0 0.00 0.00 0.00 36 1002.9
20260905043059 23 315 0.0 0.0 0.00 0.00 0.00 35 1002.9
20260905041531 23 325 0.0 0.0 0.00 0.00 0.00 35 1002.9
20260905040033 23 324 0.0 0.0 0.00 0.00 0.00 37 1003.0
20260905034630 24 326 0.0 3.2 0.00 0.00 0.00 34 1003.0
20260905033030 24 335 0.0 0.0 0.00 0.00 0.00 34 1003.2
20260905031529 24 81 0.0 0.0 0.00 0.00 0.00 34 1002.9
20260905030028 25 81 0.0 0.0 0.00 0.00 0.00 34 1002.8
20260905024530 25 81 0.0 0.0 0.00 0.00 0.00 33 1002.6
20260905023031 26 81 0.0 0.0 0.00 0.00 0.00 33 1002.3
20260905021533 26 81 0.0 0.0 0.00 0.00 0.00 33 1002.0
20260905020026 26 81 0.0 0.0 0.00 0.00 0.00 30 1001.9
20260905014525 27 81 0.0 0.0 0.00 0.00 0.00 28 1001.8
20260905013027 27 81 0.0 0.0 0.00 0.00 0.00 28 1001.6
20260905011525 28 81 0.0 0.0 0.00 0.00 0.00 27 1001.5
20260905010025 28 70 0.0 1.6 0.00 0.00 0.00 26 1001.4
20260905004524 29 81 0.0 0.0 0.00 0.00 0.00 26 1001.5
20260905003025 30 74 0.0 0.0 0.00 0.00 0.00 25 1001.5
20260905001529 30 74 0.0 6.4 0.00 0.00 0.00 24 1001.4
20260905000032 31 69 0.0 6.4 0.00 0.00 0.00 23 1001.2
20260904234528 31 49 0.0 11.3 0.00 0.00 0.00 21 1001.2
20260904233025 33 84 0.0 8.0 0.00 0.00 0.00 20 1001.1
20260904231521 34 101 0.0 11.3 0.00 0.00 0.00 18 1001.0
20260904230022 35 90 0.0 9.7 0.00 0.00 0.00 17 1001.0
20260904224526 35 91 0.0 0.0 0.00 0.00 0.00 15 1001.0
20260904223019 35 129 0.0 0.0 0.00 0.00 0.00 15 1001.2
20260904221520 34 125 0.0 4.8 0.00 0.00 0.00 16 1001.2
20260904220025 34 74 0.0 11.3 0.00 0.00 0.00 15 1001.4
20260904214521 35 71 0.0 14.5 0.00 0.00 0.00 16 1001.4
20260904211513 33 110 0.0 8.0 0.00 0.00 0.00 16 1001.7
20260904210013 34 122 0.0 9.7 0.00 0.00 0.00 16 1001.9
20260904204512 34 76 3.2 12.9 0.00 0.00 0.00 16 1002.1
20260904203010 33 63 4.8 16.1 0.00 0.00 0.00 17 1002.2
20260904201508 33 123 3.2 11.3 0.00 0.00 0.00 17 1002.4
20260904200007 33 98 3.2 14.5 0.00 0.00 0.00 18 1002.5
20260904194503 33 85 4.8 17.7 0.00 0.00 0.00 17 1002.7
20260904193109 32 28 0.0 11.3 0.00 0.00 0.00 18 1002.8
20260904191600 32 107 1.6 19.3 0.00 0.00 0.00 18 1003.0
20260904190058 32 83 3.2 16.1 0.00 0.00 0.00 16 1003.1
20260904184559 32 69 0.0 16.1 0.00 0.00 0.00 18 1003.3
20260904183113 32 129 1.6 16.1 0.00 0.00 0.00 18 1003.5
20260904181552 31 103 3.2 17.7 0.00 0.00 0.00 18 1003.8
20260904180113 31 61 0.0 12.9 0.00 0.00 0.00 19 1003.9
20260904174556 31 89 1.6 12.9 0.00 0.00 0.00 21 1004.0
20260904173046 31 107 3.2 16.1 0.00 0.00 0.00 20 1004.1
20260904171549 30 70 0.0 9.7 0.00 0.00 0.00 21 1004.1
20260904170048 30 110 0.0 11.3 0.00 0.00 0.00 23 1004.1
20260904164538 29 108 0.0 16.1 0.00 0.00 0.00 24 1004.1
20260904163034 28 104 1.6 12.9 0.00 0.00 0.00 27 1004.1
20260904161533 27 85 0.0 4.8 0.00 0.00 0.00 30 1004.1
20260904160027 27 90 0.0 3.2 0.00 0.00 0.00 31 1004.2
20260904154526 26 119 0.0 0.0 0.00 0.00 0.00 32 1004.2
20260904153018 25 116 0.0 0.0 0.00 0.00 0.00 31 1004.3
20260904151516 23 121 0.0 8.0 0.00 0.00 0.00 33 1004.2
20260904150017 22 124 0.0 0.0 0.00 0.00 0.00 43 1004.3
20260904144506 20 125 0.0 0.0 0.00 0.00 0.00 46 1004.3
20260904143006 17 155 0.0 0.0 0.00 0.00 0.00 47 1004.4
20260904141603 17 155 0.0 0.0 0.00 0.00 0.00 50 1004.4
20260904140002 15 219 0.0 0.0 0.00 0.00 0.00 58 1004.3
20260904134601 13 225 0.0 0.0 0.00 0.00 0.00 62 1003.9
20260904133104 12 225 0.0 0.0 0.00 0.00 0.00 61 1003.6
20260904131555 11 240 0.0 0.0 0.00 0.00 0.00 62 1003.6